Home   Weather   Västerås   Past weeks

Flag for Sweden Past Weather in Västerås, Sweden — Yesterday and Last 2 Weeks

Now
54 °F

Passing clouds.


Feels Like: 51 °F
Forecast: 51 / 58 °F
Wind: 9 mph from Southwest

Location: Vasteras / Hasslo

Current Time: Sep 29, 2016 at 5:30:34 AM

Latest Report: Sep 29, 2016 at 4:50 AM


Visibility: N/A

Pressure: 29.62 "Hg

Humidity: 94%

Dew Point: 52 °F

Location of VästeråsLocation

Past Weather in Västerås — Graph

°F

Västerås Temperature Yesterday

Maximum temperature yesterday: 63 °F (at 3:20 PM)
Minimum temperature yesterday: 54 °F (at 5:50 AM)
Average temperature yesterday: 58 °F

High & Low Weather Summary for the Past Weeks

 TemperatureHumidityPressure
High73 °F (Sep 15, 1:50 PM)100% (Sep 19, 2:20 AM)30.27 "Hg (Sep 19, 2:20 AM)
Low37 °F (Sep 19, 4:50 AM)43% (Sep 16, 4:50 PM)29.53 "Hg (Sep 28, 2:20 PM)
Average55 °F78%30.12 "Hg
* Reported Sep 14 4:20 AM — Sep 29 4:20 AM, Västerås, Weather by CustomWeather, © 2016

Note: Actual official high and low records may vary slightly from our data, if they occured in-between our weather recording intervals... More about our weather records

Advertising

Västerås Weather History for the Previous 24 Hours

Scroll right to see more
 ConditionsComfort  
Time TempWeatherWind HumidityBarometerVisibility
4:20 AM
Thu, Sep 29
54 °FPassing clouds.8 mph94%29.62 "HgN/A
3:50 AM54 °FPassing clouds.8 mph94%29.62 "HgN/A
3:20 AM54 °FPassing clouds.9 mph88%29.65 "HgN/A
2:50 AM52 °FCool.7 mph94%29.65 "HgN/A
2:20 AM54 °FCool.8 mph88%29.65 "HgN/A
1:50 AM52 °FCool.7 mph94%29.65 "HgN/A
1:20 AM54 °FCool.6 mph88%29.65 "HgN/A
12:50 AM54 °FCool.7 mph88%29.65 "HgN/A
12:20 AM54 °FCool.8 mph88%29.65 "HgN/A
11:50 PM
Wed, Sep 28
54 °FCool.8 mph88%29.65 "HgN/A
11:20 PM55 °FCool.7 mph82%29.62 "HgN/A
10:50 PM55 °FCool.7 mph82%29.62 "HgN/A
10:20 PM55 °FCool.7 mph77%29.62 "HgN/A
9:50 PM55 °FPassing clouds.8 mph77%29.62 "HgN/A
9:20 PM55 °FPassing clouds.7 mph77%29.62 "HgN/A
8:50 PM57 °FPassing clouds.8 mph77%29.59 "HgN/A
8:20 PM57 °FPassing clouds.8 mph72%29.59 "HgN/A
7:50 PM57 °FPassing clouds.8 mph77%29.59 "HgN/A
7:20 PM59 °FClear.10 mph72%29.56 "Hg10 mi
6:50 PM59 °FClear.9 mph72%29.56 "Hg10 mi
6:20 PM61 °FPassing clouds.10 mph68%29.56 "HgN/A
5:50 PM61 °FPassing clouds.13 mph68%29.53 "HgN/A
5:20 PM61 °FPassing clouds.13 mph68%29.53 "HgN/A
4:50 PM63 °FScattered clouds.12 mph64%29.53 "HgN/A
4:20 PM63 °FScattered clouds.12 mph64%29.53 "HgN/A
3:50 PM61 °FScattered clouds.12 mph68%29.53 "HgN/A
3:20 PM63 °FScattered clouds.13 mph68%29.53 "HgN/A
2:50 PM61 °FPartly sunny.13 mph68%29.53 "HgN/A
2:20 PM61 °FPartly sunny.12 mph72%29.53 "HgN/A
1:50 PM61 °FPartly sunny.12 mph72%29.56 "HgN/A
1:20 PM61 °FScattered clouds.14 mph72%29.56 "HgN/A
12:50 PM61 °FPartly sunny.15 mph72%29.56 "HgN/A
12:20 PM59 °FBroken clouds.13 mph77%29.56 "HgN/A
11:50 AM59 °FScattered clouds.12 mph82%29.59 "HgN/A
11:20 AM59 °FScattered clouds.14 mph82%29.59 "HgN/A
10:50 AM57 °FBroken clouds.15 mph88%29.62 "HgN/A
10:20 AM57 °FBroken clouds.16 mph88%29.62 "HgN/A
9:50 AM55 °FPartly sunny.17 mph94%29.62 "HgN/A
9:20 AM55 °FDrizzle. Broken clouds.16 mph88%29.65 "HgN/A
8:50 AM55 °FLight rain. Partly sunny.16 mph88%29.68 "HgN/A
8:20 AM55 °FLight rain. Partly sunny.14 mph88%29.68 "HgN/A
7:50 AM54 °FPassing clouds.16 mph94%29.68 "HgN/A
7:20 AM54 °FLight rain. Passing clouds.16 mph94%29.71 "HgN/A
6:50 AM55 °FLight rain. Passing clouds.15 mph88%29.74 "Hg6 mi
6:20 AM54 °FLight rain. Passing clouds.9 mph94%29.77 "HgN/A
5:50 AM54 °FRain. Passing clouds.12 mph88%29.80 "Hg4 mi
5:20 AM55 °FRain. Partly cloudy.13 mph88%29.80 "Hg3 mi
Weather by CustomWeather, © 2016

See weather overviewHow to use our weather pages